Regional Weather Roundup
Issued by NWS San Angelo, TX

Home | Current Version | Previous Version | Text Only | Print | Product List | Glossary On
Versions: 1 2 3 4 5 6 7 8 9 10 11 12 13 14 15 16 17 18 19 20 21 22 23 24 25 26 27 28 29 30 31 32 33 34 35 36 37 38 39 40 41 42 43 44 45 46 47 48 49 50
000
ASUS44 KSJT 290610
RWRSJT
WEST CENTRAL TEXAS REGIONAL WEATHER ROUNDUP
NATIONAL WEATHER SERVICE SAN ANGELO TX
100 AM CDT MON MAY 29 2017

NOTE: "FAIR" INDICATES FEW OR NO CLOUDS BELOW 12,000 FEET WITH NO
SIGNIFICANT WEATHER AND/OR OBSTRUCTIONS TO VISIBILITY.

TXZ049-054-064>066-071>073-076>078-098-099-113-114-127-128-139-140-
154-155-168>170-290700
...LOCATIONS ACROSS WEST CENTRAL TEXAS...

CITY           SKY/WX    TMP DP  RH WIND       PRES   REMARKS
SAN ANGELO     CLOUDY    69  58  67 NE6       30.08R
ABILENE        CLOUDY    64  63  96 E5        30.10R
DYESS AFB      NOT AVBL
JUNCTION       CLOUDY    70  65  84 CALM      30.05F
SWEETWATER     CLOUDY    66  56  70 E5        30.15R
BROWNWOOD      CLOUDY    68  64  88 N5        30.05S
COLEMAN        CLOUDY    69  62  80 N5        30.07R
SONORA         CLOUDY    70  61  73 CALM      30.13R
OZONA            N/A     70  55  60 E12       30.11F
BRADY          NOT AVBL
$$

TEXAS PANHANDLE/OKLAHOMA PANHANDLE

CITY           SKY/WX    TMP DP  RH WIND       PRES   REMARKS
AMARILLO       CLEAR     58  37  45 SE3       30.17S
BORGER         CLEAR     61  40  45 CALM      30.15R
CANADIAN       CLEAR     53  48  82 CALM      30.11R
DALHART        CLEAR     59  38  45 CALM      30.19F
DUMAS          CLEAR     56  39  53 SW3       30.17S
GUYMON         NOT AVBL
HEREFORD       CLEAR     53  42  68 CALM      30.19S
PAMPA          CLEAR     62  39  43 W6        30.16R
PERRYTON       CLEAR     60  45  56 W8        30.11R
$$

SOUTHERN PANHANDLE/SOUTH PLAINS/ROLLING PLAINS

CITY           SKY/WX    TMP DP  RH WIND       PRES   REMARKS
LUBBOCK        CLEAR     62  41  46 E9        30.16R
SNYDER         CLOUDY    70  42  36 E9        30.13R
CHILDRESS      CLEAR     67  38  34 E5        30.10S
SEMINOLE       CLEAR     63  43  49 E6        30.16R
$$

PERMIAN BASIN

CITY           SKY/WX    TMP DP  RH WIND       PRES   REMARKS
MIDLAND        CLEAR     70  52  52 E10       30.13R
ODESSA         CLEAR     70  52  52 E8        30.14R
WINK           CLEAR     67  48  50 E7        30.10R
$$

FAR WEST/SOUTHWEST MOUNTAINS/TRANS PECOS

CITY           SKY/WX    TMP DP  RH WIND       PRES   REMARKS
ALPINE         PTCLDY    66  47  49 NE8       30.23R
DRYDEN           N/A     75  64  68 E7        30.06R
EL PASO        CLEAR     75  37  25 E14       30.07R
FORT STOCKTON  CLEAR     70  54  56 E15       30.12R
GUADALUPE PASS CLEAR     62  44  51 NE20      30.21S
MARFA          CLEAR     64  46  52 NE12      30.20R
PECOS          CLEAR     67  46  45 E8        30.10R
$$

DALLAS/FORT WORTH METROPLEX

CITY           SKY/WX    TMP DP  RH WIND       PRES   REMARKS
DFW AIRPORT    CLOUDY    74  69  85 CALM      30.02S
FTW MEACHAM    CLOUDY    71  68  90 N5        30.03F
DAL-EXECUTIVE  CLOUDY    70  69  97 CALM      30.03F
GRAND PRAIRIE  MOCLDY    73  67  83 CALM      30.05S
ADDISON        MOCLDY    72  68  88 CALM      30.06S
MESQUITE       MOCLDY    70  69  97 CALM      30.03F
LANCASTER      CLOUDY    69  68  95 CALM      30.04R
$$

NORTH CENTRAL TEXAS

CITY           SKY/WX    TMP DP  RH WIND       PRES   REMARKS
SHRMAN/DENISON CLOUDY    67  63  86 CALM      30.04F
GAINESVILLE    CLOUDY    67  62  85 CALM      30.07S
BRIDGEPORT     CLOUDY    65  65  97 CALM      30.07S
DENTON         CLOUDY    67  65  93 CALM      30.04R
WAXAHACHIE     CLOUDY    69  69 100 CALM      30.04S
GRANBURY       CLOUDY    69  65  88 CALM      30.06R
$$

WESTERN NORTH TEXAS

CITY           SKY/WX    TMP DP  RH WIND       PRES   REMARKS
WICHITA FALLS  CLOUDY    66  54  65 CALM      30.06S
VERNON         CLEAR     67  39  35 CALM      30.09S
BRECKENRIDGE   CLOUDY    67  64  90 CALM      30.07R
COMANCHE       CLOUDY    68  68 100 CALM      30.06R
$$

CENTRAL AND SOUTH CENTRAL TEXAS

CITY           SKY/WX    TMP DP  RH WIND       PRES   REMARKS
AUSTIN/BERGSTM CLOUDY    73  71  93 S7        29.97F
WACO           CLOUDY    71  70  96 N12       29.98F
HILLSBORO      CLOUDY    71  70  96 N9        30.02R
TEMPLE         CLOUDY    68  67  96 NW6       29.99R
KILLEEN-GRAY   CLOUDY    68  67  97 CALM      30.00R
FORT HOOD      CLOUDY    67  66  98 CALM      29.97S
GEORGETOWN     CLOUDY    70  64  83 N14       29.98R
LAGO VISTA     FAIR      69  67  90 NE3       29.97F
SAN MARCOS       N/A    N/A N/A N/A MISG        N/A
NEW BRAUNFELS  LGT RAIN  71  68  90 SE8       29.95F
RANDOLPH AFB   CLOUDY    70  70 100 NE6       29.95F
SAN ANTONIO    LGT RAIN  71  66  84 NE10      29.96F
STINSON        LGT RAIN  72  68  87 E13       29.91F
PLEASANTON     NOT AVBL
LA GRANGE      CLOUDY    73  68  86 SE5       29.97F
GIDDINGS       CLOUDY    71  66  85 SE6       29.99R
$$

EAST TEXAS

CITY           SKY/WX    TMP DP  RH WIND       PRES   REMARKS
PARIS          CLOUDY    66  63  88 N6        30.02S
CLARKSVILLE    NOT AVBL
TYLER          CLOUDY    70  70 100 S7        30.03F
LONGVIEW       CLOUDY   N/A N/A N/A S3        30.01S
PALESTINE      LGT RAIN  70  70 100 N5        30.01F
NACOGDOCHES    CLOUDY    68  64  88 SW14      30.04R
$$

TEXAS HILL COUNTRY AND EDWARDS PLATEAU

CITY           SKY/WX    TMP DP  RH WIND       PRES   REMARKS
LLANO          CLOUDY    70  66  88 CALM      30.05R
HORSESHOE BAY  NOT AVBL
KERRVILLE      CLOUDY    69  66  92 NE7       29.99F
FREDERICKSBRG  DRIZZLE   67  65  91 CALM      30.01F
ROCKSPRINGS      N/A    N/A N/A N/A MISG        N/A
HONDO          CLOUDY    73  63  70 E9        29.97F
UVALDE         CLOUDY    72  64  76 CALM      29.99F
DEL RIO        MOCLDY    73  66  78 NW6       29.98F
$$

SOUTHEAST TEXAS

CITY           SKY/WX    TMP DP  RH WIND       PRES   REMARKS
COLLEGE STN    LGT RAIN  72  70  93 E16G24    29.93F
CALDWELL       NOT AVBL
CROCKETT         N/A    N/A N/A N/A MISG        N/A
BRENHAM        CLOUDY    72  69  92 SE10      29.96F
HUNTSVILLE     CLOUDY    71  68  90 E6        29.99F
CONROE         CLOUDY    69  68  96 E6        30.01F
HOUSTON BUSH   TSTM      71  69  93 E13       30.03F
HOUSTON HOBBY  TSTM      70  69  97 N20       30.03F FOG
PERLAND        TSTM      73  68  84 N13G29    30.06R
WHARTON        TSTM      70  66  89 NE10      30.00F
$$

THE UPPER TEXAS COAST

CITY           SKY/WX    TMP DP  RH WIND       PRES   REMARKS
ORANGE         LGT RAIN  68  68  99 NE3       30.08F
PORT ARTHUR    LGT RAIN  69  66  90 N13       30.04F
GALVESTON      LGT RAIN  76  70  82 N26G40    30.05R
ANGLETON       CLOUDY    80  78  94 E6        29.98F
BAY CITY       MOCLDY    78  77  95 CALM      29.98F FOG
$$

TEXAS COASTAL BEND, RIO GRANDE PLAINS DEEP SOUTH TEXAS

CITY           SKY/WX    TMP DP  RH WIND       PRES   REMARKS
VICTORIA       CLOUDY    79  76  90 E5        29.98F
BEEVILLE       TSTM     N/A N/A N/A E6        29.99S
ROCKPORT       CLOUDY    81  77  88 E13       29.96F
PORT ARANSAS   CLOUDY    80  78  94 NE9       29.96F FOG
PORT LAVACA    LGT RAIN  79  78  98 CALM      29.97F
CORPUS CHRISTI TSTM      81  79  94 E12       29.94F
KINGSVILLE NAS TSTM      80  80 100 NE10      29.92F
COTULLA        TSTM      80  59  48 VRB6G23   29.83F
LAREDO         CLOUDY    73  70  88 NE16G26   29.88F FOG
BROWNSVILLE    CLOUDY    84  78  82 SE10      29.89S
PORT ISABEL    CLOUDY    83  79  88 SE13      29.89R FOG
HEBBRONVILLE   TSTM      70  66  88 NE13      29.93R VSB 3/4
MCALLEN        CLOUDY    84  77  79 E12       29.88S
WESLACO        CLOUDY    82  76  83 SE9       29.88R HAZE
FALFURRIAS     CLOUDY    81  78  88 E13       29.90F
EDINBURG       CLOUDY    84  76  75 E8        29.88S
$$



USA.gov is the U.S. government's official web portal to all federal, state and local government web resources and services.